﻿測定場所 (Monitoring sites),日付 (Measurement date),時間 (Measurement time),線量率 最大値 (max) μGy/h,線量率 最小値 (min) μGy/h,線量率 平均値 (average) μGy/h,
江東 (Koto),2012-05-27,23:01～24:00,0.0474,0.0420,0.0445,
江東 (Koto),2012-05-27,22:01～23:00,0.0461,0.0412,0.0442,
江東 (Koto),2012-05-27,21:01～22:00,0.0478,0.0417,0.0444,
江東 (Koto),2012-05-27,20:01～21:00,0.0468,0.0420,0.0443,
江東 (Koto),2012-05-27,19:01～20:00,0.0473,0.0414,0.0439,
江東 (Koto),2012-05-27,18:01～19:00,0.0475,0.0422,0.0447,
江東 (Koto),2012-05-27,17:01～18:00,0.0469,0.0410,0.0443,
江東 (Koto),2012-05-27,16:01～17:00,0.0474,0.0409,0.0443,
江東 (Koto),2012-05-27,15:01～16:00,0.0465,0.0419,0.0445,
江東 (Koto),2012-05-27,14:01～15:00,0.0483,0.0418,0.0445,
江東 (Koto),2012-05-27,13:01～14:00,0.0469,0.0419,0.0443,
江東 (Koto),2012-05-27,12:01～13:00,0.0465,0.0422,0.0442,
江東 (Koto),2012-05-27,11:01～12:00,0.0476,0.0420,0.0443,
江東 (Koto),2012-05-27,10:01～11:00,0.0482,0.0406,0.0444,
江東 (Koto),2012-05-27,09:01～10:00,0.0485,0.0423,0.0447,
江東 (Koto),2012-05-27,08:01～09:00,0.0464,0.0405,0.0444,
江東 (Koto),2012-05-27,07:01～08:00,0.0470,0.0410,0.0444,
江東 (Koto),2012-05-27,06:01～07:00,0.0469,0.0426,0.0446,
江東 (Koto),2012-05-27,05:01～06:00,0.0471,0.0425,0.0446,
江東 (Koto),2012-05-27,04:01～05:00,0.0470,0.0418,0.0443,
江東 (Koto),2012-05-27,03:01～04:00,0.0478,0.0418,0.0446,
江東 (Koto),2012-05-27,02:01～03:00,0.0473,0.0425,0.0446,
江東 (Koto),2012-05-27,01:01～02:00,0.0469,0.0420,0.0446,
江東 (Koto),2012-05-27,00:01～01:00,0.0472,0.0423,0.0446,
江東 (Koto),2012-05-26,23:01～24:00,0.0472,0.0419,0.0444,
江東 (Koto),2012-05-26,22:01～23:00,0.0476,0.0421,0.0447,
江東 (Koto),2012-05-26,21:01～22:00,0.0466,0.0427,0.0445,
江東 (Koto),2012-05-26,20:01～21:00,0.0470,0.0417,0.0447,
江東 (Koto),2012-05-26,19:01～20:00,0.0473,0.0410,0.0443,
江東 (Koto),2012-05-26,18:01～19:00,0.0464,0.0420,0.0442,
江東 (Koto),2012-05-26,17:01～18:00,0.0482,0.0425,0.0447,
江東 (Koto),2012-05-26,16:01～17:00,0.0480,0.0418,0.0447,
江東 (Koto),2012-05-26,15:01～16:00,0.0478,0.0422,0.0446,
江東 (Koto),2012-05-26,14:01～15:00,0.0466,0.0421,0.0445,
江東 (Koto),2012-05-26,13:01～14:00,0.0476,0.0407,0.0443,
江東 (Koto),2012-05-26,12:01～13:00,0.0467,0.0423,0.0446,
江東 (Koto),2012-05-26,11:01～12:00,0.0474,0.0413,0.0446,
江東 (Koto),2012-05-26,10:01～11:00,0.0471,0.0415,0.0444,
江東 (Koto),2012-05-26,09:01～10:00,0.0473,0.0422,0.0446,
江東 (Koto),2012-05-26,08:01～09:00,0.0479,0.0416,0.0446,
江東 (Koto),2012-05-26,07:01～08:00,0.0487,0.0416,0.0447,
江東 (Koto),2012-05-26,06:01～07:00,0.0473,0.0418,0.0448,
江東 (Koto),2012-05-26,05:01～06:00,0.0492,0.0421,0.0446,
江東 (Koto),2012-05-26,04:01～05:00,0.0468,0.0420,0.0442,
江東 (Koto),2012-05-26,03:01～04:00,0.0477,0.0423,0.0449,
江東 (Koto),2012-05-26,02:01～03:00,0.0471,0.0410,0.0445,
江東 (Koto),2012-05-26,01:01～02:00,0.0473,0.0409,0.0446,
江東 (Koto),2012-05-26,00:01～01:00,0.0467,0.0426,0.0446,
江東 (Koto),2012-05-25,23:01～24:00,0.0479,0.0428,0.0447,
江東 (Koto),2012-05-25,22:01～23:00,0.0467,0.0426,0.0445,
江東 (Koto),2012-05-25,21:01～22:00,0.0475,0.0423,0.0445,
江東 (Koto),2012-05-25,20:01～21:00,0.0478,0.0422,0.0446,
江東 (Koto),2012-05-25,19:01～20:00,0.0475,0.0420,0.0451,
江東 (Koto),2012-05-25,18:01～19:00,0.0474,0.0421,0.0448,
江東 (Koto),2012-05-25,17:01～18:00,0.0471,0.0422,0.0446,
江東 (Koto),2012-05-25,16:01～17:00,0.0471,0.0408,0.0447,
江東 (Koto),2012-05-25,15:01～16:00,0.0497,0.0426,0.0466,
江東 (Koto),2012-05-25,14:01～15:00,0.0522,0.0461,0.0490,
江東 (Koto),2012-05-25,13:01～14:00,0.0516,0.0440,0.0483,
江東 (Koto),2012-05-25,12:01～13:00,0.0495,0.0435,0.0468,
江東 (Koto),2012-05-25,11:01～12:00,0.0504,0.0426,0.0459,
江東 (Koto),2012-05-25,10:01～11:00,0.0473,0.0418,0.0442,
江東 (Koto),2012-05-25,09:01～10:00,0.0468,0.0417,0.0445,
江東 (Koto),2012-05-25,08:01～09:00,0.0466,0.0415,0.0442,
江東 (Koto),2012-05-25,07:01～08:00,0.0460,0.0412,0.0440,
江東 (Koto),2012-05-25,06:01～07:00,0.0471,0.0407,0.0442,
江東 (Koto),2012-05-25,05:01～06:00,0.0473,0.0419,0.0441,
江東 (Koto),2012-05-25,04:01～05:00,0.0478,0.0418,0.0446,
江東 (Koto),2012-05-25,03:01～04:00,0.0488,0.0409,0.0443,
江東 (Koto),2012-05-25,02:01～03:00,0.0467,0.0420,0.0443,
江東 (Koto),2012-05-25,01:01～02:00,0.0477,0.0420,0.0443,
江東 (Koto),2012-05-25,00:01～01:00,0.0466,0.0420,0.0444,
江東 (Koto),2012-05-24,23:01～24:00,0.0469,0.0413,0.0442,
江東 (Koto),2012-05-24,22:01～23:00,0.0476,0.0416,0.0448,
江東 (Koto),2012-05-24,21:01～22:00,0.0465,0.0414,0.0443,
江東 (Koto),2012-05-24,20:01～21:00,0.0471,0.0418,0.0444,
江東 (Koto),2012-05-24,19:01～20:00,0.0478,0.0418,0.0445,
江東 (Koto),2012-05-24,18:01～19:00,0.0476,0.0403,0.0440,
江東 (Koto),2012-05-24,17:01～18:00,0.0491,0.0417,0.0442,
江東 (Koto),2012-05-24,16:01～17:00,0.0480,0.0408,0.0442,
江東 (Koto),2012-05-24,15:01～16:00,0.0475,0.0418,0.0442,
江東 (Koto),2012-05-24,14:01～15:00,0.0470,0.0422,0.0445,
江東 (Koto),2012-05-24,13:01～14:00,0.0463,0.0411,0.0442,
江東 (Koto),2012-05-24,12:01～13:00,0.0480,0.0417,0.0443,
江東 (Koto),2012-05-24,11:01～12:00,0.0469,0.0416,0.0440,
江東 (Koto),2012-05-24,10:01～11:00,0.0467,0.0415,0.0443,
江東 (Koto),2012-05-24,09:01～10:00,0.0487,0.0410,0.0443,
江東 (Koto),2012-05-24,08:01～09:00,0.0468,0.0402,0.0441,
江東 (Koto),2012-05-24,07:01～08:00,0.0474,0.0416,0.0443,
江東 (Koto),2012-05-24,06:01～07:00,0.0473,0.0419,0.0442,
江東 (Koto),2012-05-24,05:01～06:00,0.0472,0.0412,0.0443,
江東 (Koto),2012-05-24,04:01～05:00,0.0480,0.0415,0.0443,
江東 (Koto),2012-05-24,03:01～04:00,0.0469,0.0412,0.0439,
江東 (Koto),2012-05-24,02:01～03:00,0.0478,0.0403,0.0439,
江東 (Koto),2012-05-24,01:01～02:00,0.0463,0.0411,0.0440,
江東 (Koto),2012-05-24,00:01～01:00,0.0471,0.0418,0.0439,
江東 (Koto),2012-05-23,23:01～24:00,0.0465,0.0426,0.0442,
江東 (Koto),2012-05-23,22:01～23:00,0.0475,0.0409,0.0441,
江東 (Koto),2012-05-23,21:01～22:00,0.0470,0.0418,0.0443,
江東 (Koto),2012-05-23,20:01～21:00,0.0469,0.0421,0.0442,
江東 (Koto),2012-05-23,19:01～20:00,0.0454,0.0423,0.0438,
江東 (Koto),2012-05-23,18:01～19:00,0.0469,0.0415,0.0438,
江東 (Koto),2012-05-23,17:01～18:00,0.0471,0.0409,0.0440,
江東 (Koto),2012-05-23,16:01～17:00,0.0472,0.0413,0.0439,
江東 (Koto),2012-05-23,15:01～16:00,0.0466,0.0414,0.0438,
江東 (Koto),2012-05-23,14:01～15:00,0.0464,0.0417,0.0439,
江東 (Koto),2012-05-23,13:01～14:00,0.0460,0.0412,0.0438,
江東 (Koto),2012-05-23,12:01～13:00,0.0462,0.0411,0.0438,
江東 (Koto),2012-05-23,11:01～12:00,0.0478,0.0412,0.0436,
江東 (Koto),2012-05-23,10:01～11:00,0.0463,0.0415,0.0438,
江東 (Koto),2012-05-23,09:01～10:00,0.0469,0.0410,0.0439,
江東 (Koto),2012-05-23,08:01～09:00,0.0457,0.0405,0.0438,
江東 (Koto),2012-05-23,07:01～08:00,0.0467,0.0410,0.0439,
江東 (Koto),2012-05-23,06:01～07:00,0.0474,0.0407,0.0437,
江東 (Koto),2012-05-23,05:01～06:00,0.0471,0.0415,0.0441,
江東 (Koto),2012-05-23,04:01～05:00,0.0469,0.0413,0.0440,
江東 (Koto),2012-05-23,03:01～04:00,0.0459,0.0412,0.0441,
江東 (Koto),2012-05-23,02:01～03:00,0.0470,0.0416,0.0443,
江東 (Koto),2012-05-23,01:01～02:00,0.0472,0.0411,0.0442,
江東 (Koto),2012-05-23,00:01～01:00,0.0472,0.0415,0.0445,
江東 (Koto),2012-05-22,23:01～24:00,0.0490,0.0431,0.0463,
江東 (Koto),2012-05-22,22:01～23:00,0.0523,0.0435,0.0479,
江東 (Koto),2012-05-22,21:01～22:00,0.0525,0.0453,0.0503,
江東 (Koto),2012-05-22,20:01～21:00,0.0531,0.0462,0.0501,
江東 (Koto),2012-05-22,19:01～20:00,0.0529,0.0462,0.0486,
江東 (Koto),2012-05-22,18:01～19:00,0.0491,0.0426,0.0460,
江東 (Koto),2012-05-22,17:01～18:00,0.0479,0.0435,0.0456,
江東 (Koto),2012-05-22,16:01～17:00,0.0502,0.0438,0.0462,
江東 (Koto),2012-05-22,15:01～16:00,0.0534,0.0456,0.0490,
江東 (Koto),2012-05-22,14:01～15:00,0.0547,0.0486,0.0512,
江東 (Koto),2012-05-22,13:01～14:00,0.0539,0.0463,0.0499,
江東 (Koto),2012-05-22,12:01～13:00,0.0522,0.0457,0.0484,
江東 (Koto),2012-05-22,11:01～12:00,0.0499,0.0438,0.0464,
江東 (Koto),2012-05-22,10:01～11:00,0.0492,0.0434,0.0457,
江東 (Koto),2012-05-22,09:01～10:00,0.0487,0.0437,0.0464,
江東 (Koto),2012-05-22,08:01～09:00,0.0478,0.0424,0.0449,
江東 (Koto),2012-05-22,07:01～08:00,0.0467,0.0419,0.0446,
江東 (Koto),2012-05-22,06:01～07:00,0.0484,0.0418,0.0449,
江東 (Koto),2012-05-22,05:01～06:00,0.0475,0.0412,0.0445,
江東 (Koto),2012-05-22,04:01～05:00,0.0468,0.0418,0.0448,
江東 (Koto),2012-05-22,03:01～04:00,0.0471,0.0414,0.0443,
江東 (Koto),2012-05-22,02:01～03:00,0.0469,0.0430,0.0450,
江東 (Koto),2012-05-22,01:01～02:00,0.0471,0.0423,0.0448,
江東 (Koto),2012-05-22,00:01～01:00,0.0481,0.0419,0.0447,
江東 (Koto),2012-05-21,23:01～24:00,0.0465,0.0421,0.0448,
江東 (Koto),2012-05-21,22:01～23:00,0.0468,0.0417,0.0443,
江東 (Koto),2012-05-21,21:01～22:00,0.0467,0.0419,0.0449,
江東 (Koto),2012-05-21,20:01～21:00,0.0467,0.0420,0.0445,
江東 (Koto),2012-05-21,19:01～20:00,0.0471,0.0420,0.0445,
江東 (Koto),2012-05-21,18:01～19:00,0.0467,0.0420,0.0445,
江東 (Koto),2012-05-21,17:01～18:00,0.0472,0.0418,0.0445,
江東 (Koto),2012-05-21,16:01～17:00,0.0470,0.0414,0.0446,
江東 (Koto),2012-05-21,15:01～16:00,0.0473,0.0422,0.0443,
江東 (Koto),2012-05-21,14:01～15:00,0.0482,0.0409,0.0446,
江東 (Koto),2012-05-21,13:01～14:00,0.0478,0.0424,0.0445,
江東 (Koto),2012-05-21,12:01～13:00,0.0464,0.0413,0.0443,
江東 (Koto),2012-05-21,11:01～12:00,0.0471,0.0407,0.0445,
江東 (Koto),2012-05-21,10:01～11:00,0.0477,0.0422,0.0447,
江東 (Koto),2012-05-21,09:01～10:00,0.0492,0.0421,0.0448,
江東 (Koto),2012-05-21,08:01～09:00,0.0471,0.0420,0.0448,
江東 (Koto),2012-05-21,07:01～08:00,0.0475,0.0420,0.0445,
江東 (Koto),2012-05-21,06:01～07:00,0.0475,0.0421,0.0446,
江東 (Koto),2012-05-21,05:01～06:00,0.0474,0.0421,0.0447,
江東 (Koto),2012-05-21,04:01～05:00,0.0476,0.0415,0.0447,
江東 (Koto),2012-05-21,03:01～04:00,0.0469,0.0415,0.0442,
江東 (Koto),2012-05-21,02:01～03:00,0.0472,0.0419,0.0447,
江東 (Koto),2012-05-21,01:01～02:00,0.0483,0.0422,0.0449,
江東 (Koto),2012-05-21,00:01～01:00,0.0466,0.0420,0.0444,
